User: anonymous   Login
Location: Iola
(37.9240°N, 95.4000°W)
Time: 08:00:03
(UTC-05:00)
Language:

Meteor 2-10 Rocket - Orbit

View from above orbital plane
View from above orbital plane
View from above satellite
View from above satellite

Ground track
Ground track

The orbit data is extracted from the following two-line orbital elements,

1 14453U 83109B   16179.15592214  .00000067  00000-0  21972-4 0  9999
2 14453  81.1678 103.4618 0105381  11.3849 348.9676 14.24649585696975
Epoch (UTC): 27 June 2016 03:44:31
Eccentricity: 0.0105381
inclination: 81.1678°
perigee height: 734 km
apogee height: 885 km
right ascension of ascending node: 103.4618°
argument of perigee: 11.3849°
revolutions per day: 14.24649585
mean anomaly at epoch: 348.9676°
orbit number at epoch: 69697

The dashed part of the orbit path shows where the satellite is in the earth's shadow,  

DLR